Time,TemperatureF,DewpointF,PressureIn,WindDirection,WindDirectionDegrees,WindSpeedMPH,WindSpeedGustMPH,Humidity,HourlyPrecipIn,Conditions,Clouds,dailyrainin,SoftwareType,DateUTC
2013-03-01 00:00:00,56.7,18.3,29.96,WNW,303,0.0,0.0,22,0.00,,---,0.00,VWS V14.01,2013-03-01 05:00:00,
2013-03-01 00:05:00,56.7,18.3,29.96,WNW,303,0.0,0.0,22,0.00,,---,0.00,VWS V14.01,2013-03-01 05:05:00,
2013-03-01 00:06:00,56.7,21.3,29.96,WNW,303,0.0,0.0,25,0.00,,---,0.00,VWS V14.01,2013-03-01 05:06:00,
2013-03-01 00:11:00,56.7,21.3,29.96,WNW,303,0.0,0.0,25,0.00,,---,0.00,VWS V14.01,2013-03-01 05:11:00,
2013-03-01 00:16:00,56.7,21.3,29.96,WNW,303,0.0,0.0,25,0.00,,---,0.00,VWS V14.01,2013-03-01 05:16:00,
2013-03-01 00:21:00,56.7,21.3,29.96,WNW,303,0.0,0.0,25,0.00,,---,0.00,VWS V14.01,2013-03-01 05:21:00,
2013-03-01 00:26:00,56.5,21.1,29.96,WNW,303,0.0,0.0,25,0.00,,---,0.00,VWS V14.01,2013-03-01 05:26:00,
2013-03-01 00:31:00,56.1,20.8,29.96,WNW,303,0.0,0.0,25,0.00,,---,0.00,VWS V14.01,2013-03-01 05:31:00,
2013-03-01 00:36:00,56.1,20.8,29.96,WNW,303,0.0,0.0,25,0.00,,---,0.00,VWS V14.01,2013-03-01 05:36:00,
2013-03-01 00:41:00,55.9,20.6,29.96,WNW,303,0.0,0.0,25,0.00,,---,0.00,VWS V14.01,2013-03-01 05:41:00,
2013-03-01 00:46:00,55.9,20.6,29.96,WNW,303,0.0,0.0,25,0.00,,---,0.00,VWS V14.01,2013-03-01 05:46:00,
2013-03-01 00:51:00,55.9,20.6,29.96,WNW,303,0.0,0.0,25,0.00,,---,0.00,VWS V14.01,2013-03-01 05:51:00,
2013-03-01 00:56:00,55.9,20.6,29.96,WNW,303,0.0,0.0,25,0.00,,---,0.00,VWS V14.01,2013-03-01 05:56:00,
2013-03-01 01:01:00,55.9,20.6,29.96,WNW,303,0.0,0.0,25,0.00,,---,0.00,VWS V14.01,2013-03-01 06:01:00,
2013-03-01 01:06:00,55.8,20.5,29.96,WNW,303,0.0,0.0,25,0.00,,---,0.00,VWS V14.01,2013-03-01 06:06:00,
2013-03-01 01:11:00,55.6,20.3,29.96,WNW,303,0.0,0.0,25,0.00,,---,0.00,VWS V14.01,2013-03-01 06:11:00,
2013-03-01 01:16:00,55.4,20.2,29.96,WNW,303,0.0,0.0,25,0.00,,---,0.00,VWS V14.01,2013-03-01 06:16:00,
2013-03-01 01:21:00,55.4,20.2,29.96,WNW,303,0.0,0.0,25,0.00,,---,0.00,VWS V14.01,2013-03-01 06:21:00,
2013-03-01 01:26:00,55.2,21.0,29.96,WNW,303,0.0,0.0,26,0.00,,---,0.00,VWS V14.01,2013-03-01 06:26:00,
2013-03-01 01:31:00,55.2,21.0,29.96,WNW,303,0.0,0.0,26,0.00,,---,0.00,VWS V14.01,2013-03-01 06:31:00,
2013-03-01 01:36:00,55.2,21.8,29.96,WNW,303,0.0,0.0,27,0.00,,---,0.00,VWS V14.01,2013-03-01 06:36:00,
2013-03-01 01:41:00,55.2,21.8,29.96,WNW,303,0.0,0.0,27,0.00,,---,0.00,VWS V14.01,2013-03-01 06:41:00,
2013-03-01 01:46:00,55.2,21.8,29.96,WNW,303,0.0,0.0,27,0.00,,---,0.00,VWS V14.01,2013-03-01 06:46:00,
2013-03-01 01:51:00,55.2,21.8,29.96,WNW,303,0.0,0.0,27,0.00,,---,0.00,VWS V14.01,2013-03-01 06:51:00,
2013-03-01 01:56:00,55.4,22.0,29.93,WNW,303,0.0,0.0,27,0.00,,---,0.00,VWS V14.01,2013-03-01 06:56:00,
2013-03-01 02:01:00,55.6,21.3,29.93,WNW,303,0.0,0.0,26,0.00,,---,0.00,VWS V14.01,2013-03-01 07:01:00,
2013-03-01 02:06:00,55.8,21.4,29.93,WNW,303,0.0,0.0,26,0.00,,---,0.00,VWS V14.01,2013-03-01 07:06:00,
2013-03-01 02:11:00,56.1,20.8,29.93,WNW,303,0.0,0.0,25,0.00,,---,0.00,VWS V14.01,2013-03-01 07:11:00,
2013-03-01 02:16:00,56.1,20.8,29.93,WNW,303,0.0,0.0,25,0.00,,---,0.00,VWS V14.01,2013-03-01 07:16:00,
2013-03-01 02:21:00,56.1,20.8,29.93,WNW,303,0.0,0.0,25,0.00,,---,0.00,VWS V14.01,2013-03-01 07:21:00,
2013-03-01 02:26:00,56.1,20.8,29.93,WNW,303,0.0,0.0,25,0.00,,---,0.00,VWS V14.01,2013-03-01 07:26:00,
2013-03-01 02:31:00,56.1,21.7,29.93,WNW,303,0.0,0.0,26,0.00,,---,0.00,VWS V14.01,2013-03-01 07:31:00,
2013-03-01 02:36:00,55.9,21.6,29.93,WNW,303,0.0,0.0,26,0.00,,---,0.00,VWS V14.01,2013-03-01 07:36:00,
2013-03-01 02:41:00,55.9,20.6,29.93,WNW,303,0.0,0.0,25,0.00,,---,0.00,VWS V14.01,2013-03-01 07:41:00,
2013-03-01 02:46:00,55.9,20.6,29.93,WNW,303,0.0,0.0,25,0.00,,---,0.00,VWS V14.01,2013-03-01 07:46:00,
2013-03-01 02:51:00,55.8,20.5,29.93,WNW,303,0.0,0.0,25,0.00,,---,0.00,VWS V14.01,2013-03-01 07:51:00,
2013-03-01 02:56:00,55.6,20.3,29.93,WNW,303,0.0,0.0,25,0.00,,---,0.00,VWS V14.01,2013-03-01 07:56:00,
2013-03-01 03:01:00,55.6,21.3,29.93,WNW,303,0.0,0.0,26,0.00,,---,0.00,VWS V14.01,2013-03-01 08:01:00,
2013-03-01 03:06:00,55.6,21.3,29.93,WNW,303,0.0,0.0,26,0.00,,---,0.00,VWS V14.01,2013-03-01 08:06:00,
2013-03-01 03:11:00,55.6,21.3,29.93,WNW,303,0.0,0.0,26,0.00,,---,0.00,VWS V14.01,2013-03-01 08:11:00,
2013-03-01 03:16:00,55.6,21.3,29.93,WNW,303,0.0,0.0,26,0.00,,---,0.00,VWS V14.01,2013-03-01 08:16:00,
2013-03-01 03:21:00,55.6,21.3,29.93,WNW,303,0.0,0.0,26,0.00,,---,0.00,VWS V14.01,2013-03-01 08:21:00,
2013-03-01 03:26:00,55.4,21.1,29.93,WNW,303,0.0,0.0,26,0.00,,---,0.00,VWS V14.01,2013-03-01 08:26:00,
2013-03-01 03:31:00,55.2,21.0,29.93,WNW,303,0.0,0.0,26,0.00,,---,0.00,VWS V14.01,2013-03-01 08:31:00,
2013-03-01 03:36:00,55.2,21.8,29.93,WNW,303,0.0,0.0,27,0.00,,---,0.00,VWS V14.01,2013-03-01 08:36:00,
2013-03-01 03:41:00,55.0,21.7,29.93,WNW,303,0.0,0.0,27,0.00,,---,0.00,VWS V14.01,2013-03-01 08:41:00,
2013-03-01 03:46:00,54.7,21.4,29.93,WNW,303,0.0,0.0,27,0.00,,---,0.00,VWS V14.01,2013-03-01 08:46:00,
2013-03-01 03:51:00,54.7,22.2,29.93,WNW,303,0.0,0.0,28,0.00,,---,0.00,VWS V14.01,2013-03-01 08:51:00,
2013-03-01 03:56:00,54.7,22.2,29.93,WNW,303,0.0,0.0,28,0.00,,---,0.00,VWS V14.01,2013-03-01 08:56:00,
2013-03-01 04:01:00,54.7,22.2,29.93,WNW,303,0.0,0.0,28,0.00,,---,0.00,VWS V14.01,2013-03-01 09:01:00,
2013-03-01 04:06:00,54.7,22.2,29.93,WNW,303,0.0,0.0,28,0.00,,---,0.00,VWS V14.01,2013-03-01 09:06:00,
2013-03-01 04:11:00,54.7,22.2,29.93,WNW,303,0.0,0.0,28,0.00,,---,0.00,VWS V14.01,2013-03-01 09:11:00,
2013-03-01 04:16:00,54.5,22.1,29.93,WNW,303,0.0,0.0,28,0.00,,---,0.00,VWS V14.01,2013-03-01 09:16:00,
2013-03-01 04:21:00,54.5,22.1,29.93,WNW,303,0.0,0.0,28,0.00,,---,0.00,VWS V14.01,2013-03-01 09:21:00,
2013-03-01 04:26:00,54.3,21.9,29.93,WNW,303,0.0,0.0,28,0.00,,---,0.00,VWS V14.01,2013-03-01 09:26:00,
2013-03-01 04:31:00,54.3,21.9,29.93,WNW,303,0.0,0.0,28,0.00,,---,0.00,VWS V14.01,2013-03-01 09:31:00,
2013-03-01 04:36:00,54.3,21.9,29.93,WNW,303,0.0,0.0,28,0.00,,---,0.00,VWS V14.01,2013-03-01 09:36:00,
2013-03-01 04:41:00,54.3,22.8,29.93,WNW,303,0.0,0.0,29,0.00,,---,0.00,VWS V14.01,2013-03-01 09:41:00,
2013-03-01 04:46:00,54.3,23.6,29.93,WNW,303,0.0,0.0,30,0.00,,---,0.00,VWS V14.01,2013-03-01 09:46:00,
2013-03-01 04:51:00,54.1,23.4,29.93,WNW,303,0.0,0.0,30,0.00,,---,0.00,VWS V14.01,2013-03-01 09:51:00,
2013-03-01 04:56:00,54.1,23.4,29.93,WNW,303,0.0,0.0,30,0.00,,---,0.00,VWS V14.01,2013-03-01 09:56:00,
2013-03-01 05:01:00,54.1,23.4,29.93,WNW,303,0.0,0.0,30,0.00,,---,0.00,VWS V14.01,2013-03-01 10:01:00,
2013-03-01 05:06:00,54.1,24.2,29.93,WNW,303,0.0,0.0,31,0.00,,---,0.00,VWS V14.01,2013-03-01 10:06:00,
2013-03-01 05:11:00,54.0,24.0,29.93,WNW,303,0.0,0.0,31,0.00,,---,0.00,VWS V14.01,2013-03-01 10:11:00,
2013-03-01 05:16:00,54.0,24.0,29.93,WNW,303,0.0,0.0,31,0.00,,---,0.00,VWS V14.01,2013-03-01 10:16:00,
2013-03-01 05:21:00,54.0,24.0,29.93,WNW,303,0.0,0.0,31,0.00,,---,0.00,VWS V14.01,2013-03-01 10:21:00,
2013-03-01 05:26:00,54.0,24.0,29.93,WNW,303,0.0,0.0,31,0.00,,---,0.00,VWS V14.01,2013-03-01 10:26:00,
2013-03-01 05:31:00,54.0,24.8,29.93,WNW,303,0.0,0.0,32,0.00,,---,0.00,VWS V14.01,2013-03-01 10:31:00,
2013-03-01 05:36:00,53.8,24.6,29.93,WNW,303,0.0,0.0,32,0.00,,---,0.00,VWS V14.01,2013-03-01 10:36:00,
2013-03-01 05:41:00,53.6,26.6,29.93,WNW,303,0.0,0.0,35,0.00,,---,0.00,VWS V14.01,2013-03-01 10:41:00,
2013-03-01 05:46:00,53.4,27.1,29.93,WNW,303,0.0,0.0,36,0.00,,---,0.00,VWS V14.01,2013-03-01 10:46:00,
2013-03-01 05:51:00,53.6,26.6,29.93,WNW,303,0.0,0.0,35,0.00,,---,0.00,VWS V14.01,2013-03-01 10:51:00,
2013-03-01 05:56:00,53.6,26.6,29.96,WNW,303,0.0,0.0,35,0.00,,---,0.00,VWS V14.01,2013-03-01 10:56:00,
2013-03-01 06:01:00,53.4,25.8,29.96,WNW,303,0.0,0.0,34,0.00,,---,0.00,VWS V14.01,2013-03-01 11:01:00,
2013-03-01 06:06:00,53.6,25.2,29.96,WNW,303,0.0,0.0,33,0.00,,---,0.00,VWS V14.01,2013-03-01 11:06:00,
2013-03-01 06:11:00,53.4,21.1,29.96,WNW,303,0.0,0.0,28,0.00,,---,0.00,VWS V14.01,2013-03-01 11:11:00,
2013-03-01 06:16:00,53.6,19.6,29.96,NNW,341,0.0,0.0,26,0.00,,---,0.00,VWS V14.01,2013-03-01 11:16:00,
2013-03-01 06:21:00,53.8,16.9,29.96,NNW,341,0.0,0.0,23,0.00,,---,0.00,VWS V14.01,2013-03-01 11:21:00,
2013-03-01 06:26:00,53.8,13.7,29.96,North,350,0.0,0.0,20,0.00,,---,0.00,VWS V14.01,2013-03-01 11:26:00,
2013-03-01 06:31:00,53.8,11.3,29.96,North,350,0.0,0.0,18,0.00,,---,0.00,VWS V14.01,2013-03-01 11:31:00,
2013-03-01 06:36:00,53.6,11.1,29.96,North,350,0.0,0.0,18,0.00,,---,0.00,VWS V14.01,2013-03-01 11:36:00,
2013-03-01 06:41:00,53.6,11.1,29.96,NNE,15,0.0,0.0,18,0.00,,---,0.00,VWS V14.01,2013-03-01 11:41:00,
2013-03-01 06:46:00,53.4,8.4,29.96,NNE,13,0.0,0.0,16,0.00,,---,0.00,VWS V14.01,2013-03-01 11:46:00,
2013-03-01 06:51:00,53.2,8.2,29.96,North,6,2.2,2.7,16,0.00,,---,0.00,VWS V14.01,2013-03-01 11:51:00,
2013-03-01 06:56:00,53.2,8.2,29.96,North,7,0.0,0.0,16,0.00,,---,0.00,VWS V14.01,2013-03-01 11:56:00,
2013-03-01 07:01:00,53.1,8.1,29.96,North,3,0.0,0.0,16,0.00,,---,0.00,VWS V14.01,2013-03-01 12:01:00,
2013-03-01 07:06:00,53.1,8.1,29.96,NNE,23,0.0,0.0,16,0.00,,---,0.00,VWS V14.01,2013-03-01 12:06:00,
2013-03-01 07:11:00,53.1,8.1,29.96,NNE,23,0.0,0.0,16,0.00,,---,0.00,VWS V14.01,2013-03-01 12:11:00,
2013-03-01 07:16:00,52.9,7.9,29.96,NNE,23,0.0,0.0,16,0.00,,---,0.00,VWS V14.01,2013-03-01 12:16:00,
2013-03-01 07:21:00,52.9,7.9,29.96,North,357,2.2,2.7,16,0.00,,---,0.00,VWS V14.01,2013-03-01 12:21:00,
2013-03-01 07:26:00,52.9,7.9,29.99,NNE,23,0.0,0.0,16,0.00,,---,0.00,VWS V14.01,2013-03-01 12:26:00,
2013-03-01 07:31:00,52.9,7.9,29.99,NNE,19,0.0,0.0,16,0.00,,---,0.00,VWS V14.01,2013-03-01 12:31:00,
2013-03-01 07:36:00,53.1,8.1,29.99,NNE,19,0.0,0.0,16,0.00,,---,0.00,VWS V14.01,2013-03-01 12:36:00,
2013-03-01 07:41:00,53.1,8.1,29.99,NNE,19,0.0,0.0,16,0.00,,---,0.00,VWS V14.01,2013-03-01 12:41:00,
2013-03-01 07:46:00,53.1,8.1,29.99,NNE,19,0.0,0.0,16,0.00,,---,0.00,VWS V14.01,2013-03-01 12:46:00,
2013-03-01 07:51:00,53.1,8.1,29.99,NNE,19,0.0,0.0,16,0.00,,---,0.00,VWS V14.01,2013-03-01 12:51:00,
2013-03-01 07:56:00,53.2,8.2,29.99,NNE,19,0.0,0.0,16,0.00,,---,0.00,VWS V14.01,2013-03-01 12:56:00,
2013-03-01 08:01:00,53.4,8.4,29.99,NNE,18,0.0,0.0,16,0.00,,---,0.00,VWS V14.01,2013-03-01 13:01:00,
2013-03-01 08:06:00,53.6,7.1,29.99,NNE,27,0.0,0.0,15,0.00,,---,0.00,VWS V14.01,2013-03-01 13:06:00,
2013-03-01 08:11:00,53.6,7.1,29.99,North,1,2.7,2.7,15,0.00,,---,0.00,VWS V14.01,2013-03-01 13:11:00,
2013-03-01 08:16:00,53.8,7.2,29.99,North,11,3.1,3.1,15,0.00,,---,0.00,VWS V14.01,2013-03-01 13:16:00,
2013-03-01 08:21:00,54.1,4.4,29.99,NNE,23,4.0,4.0,13,0.00,,---,0.00,VWS V14.01,2013-03-01 13:21:00,
2013-03-01 08:26:00,54.5,4.7,29.99,NNE,24,2.7,2.7,13,0.00,,---,0.00,VWS V14.01,2013-03-01 13:26:00,
2013-03-01 08:31:00,54.7,4.8,29.99,NNE,29,0.0,0.0,13,0.00,,---,0.00,VWS V14.01,2013-03-01 13:31:00,
2013-03-01 08:36:00,54.9,5.0,29.99,NNE,13,0.0,0.0,13,0.00,,---,0.00,VWS V14.01,2013-03-01 13:36:00,
2013-03-01 08:41:00,55.2,5.2,29.99,NNE,22,0.0,0.0,13,0.00,,---,0.00,VWS V14.01,2013-03-01 13:41:00,
2013-03-01 08:46:00,55.2,5.2,29.99,NNE,25,0.0,0.0,13,0.00,,---,0.00,VWS V14.01,2013-03-01 13:46:00,
2013-03-01 08:51:00,55.0,5.1,29.99,NNW,346,4.0,4.0,13,0.00,,---,0.00,VWS V14.01,2013-03-01 13:51:00,
2013-03-01 08:56:00,55.2,5.2,29.99,North,350,0.0,0.0,13,0.00,,---,0.00,VWS V14.01,2013-03-01 13:56:00,
2013-03-01 09:01:00,55.4,3.7,29.99,North,357,0.0,0.0,12,0.00,,---,0.00,VWS V14.01,2013-03-01 14:01:00,
2013-03-01 09:06:00,55.4,3.7,29.99,NNE,24,0.0,0.0,12,0.00,,---,0.00,VWS V14.01,2013-03-01 14:06:00,
2013-03-01 09:11:00,55.4,3.7,30.02,NE,46,0.0,0.0,12,0.00,,---,0.00,VWS V14.01,2013-03-01 14:11:00,
2013-03-01 09:16:00,55.6,3.8,30.02,NNW,340,0.0,0.0,12,0.00,,---,0.00,VWS V14.01,2013-03-01 14:16:00,
2013-03-01 09:20:00,55.6,3.8,30.02,North,357,0.0,0.0,12,0.00,,---,0.00,VWS V14.01,2013-03-01 14:20:00,
2013-03-01 09:25:00,55.8,3.9,30.02,NNE,21,4.0,4.0,12,0.00,,---,0.00,VWS V14.01,2013-03-01 14:25:00,
2013-03-01 09:30:00,55.8,3.9,30.02,North,0,3.6,3.6,12,0.00,,---,0.00,VWS V14.01,2013-03-01 14:30:00,
2013-03-01 09:35:00,55.9,4.1,30.02,NNE,28,0.0,0.0,12,0.00,,---,0.00,VWS V14.01,2013-03-01 14:35:00,
2013-03-01 09:40:00,56.1,4.2,30.02,NNE,16,2.7,2.7,12,0.00,,---,0.00,VWS V14.01,2013-03-01 14:40:00,
2013-03-01 09:45:00,56.3,4.4,30.02,NNE,25,2.7,3.1,12,0.00,,---,0.00,VWS V14.01,2013-03-01 14:45:00,
2013-03-01 09:50:00,56.5,4.5,30.02,North,357,2.2,2.2,12,0.00,,---,0.00,VWS V14.01,2013-03-01 14:50:00,
2013-03-01 09:55:00,56.8,4.8,30.02,North,357,0.0,0.0,12,0.00,,---,0.00,VWS V14.01,2013-03-01 14:55:00,
2013-03-01 10:00:00,57.2,5.1,30.02,NNE,27,5.4,5.4,12,0.00,,---,0.00,VWS V14.01,2013-03-01 15:00:00,
2013-03-01 10:05:00,57.7,5.5,30.02,North,353,2.7,2.7,12,0.00,,---,0.00,VWS V14.01,2013-03-01 15:05:00,
2013-03-01 10:10:00,57.6,5.3,30.02,NNE,17,3.6,3.6,12,0.00,,---,0.00,VWS V14.01,2013-03-01 15:10:00,
2013-03-01 10:15:00,57.2,5.1,30.02,North,4,3.1,3.1,12,0.00,,---,0.00,VWS V14.01,2013-03-01 15:15:00,
2013-03-01 10:20:00,57.6,5.3,30.02,NNE,32,5.4,5.4,12,0.00,,---,0.00,VWS V14.01,2013-03-01 15:20:00,
2013-03-01 10:25:00,57.7,5.5,30.02,North,0,2.2,2.2,12,0.00,,---,0.00,VWS V14.01,2013-03-01 15:25:00,
2013-03-01 10:30:00,58.1,5.8,30.02,NNW,348,3.6,3.6,12,0.00,,---,0.00,VWS V14.01,2013-03-01 15:30:00,
2013-03-01 10:35:00,58.1,5.8,30.02,North,0,0.0,0.0,12,0.00,,---,0.00,VWS V14.01,2013-03-01 15:35:00,
2013-03-01 10:40:00,58.3,5.9,30.02,NNE,22,0.0,0.0,12,0.00,,---,0.00,VWS V14.01,2013-03-01 15:40:00,
2013-03-01 10:45:00,58.1,5.8,30.02,NNW,332,0.0,0.0,12,0.00,,---,0.00,VWS V14.01,2013-03-01 15:45:00,
2013-03-01 10:50:00,58.3,5.9,30.02,WNW,303,0.0,0.0,12,0.00,,---,0.00,VWS V14.01,2013-03-01 15:50:00,
2013-03-01 10:55:00,57.9,5.6,30.02,North,357,5.8,5.8,12,0.00,,---,0.00,VWS V14.01,2013-03-01 15:55:00,
2013-03-01 11:00:00,57.9,5.6,30.02,NNE,25,0.0,0.0,12,0.00,,---,0.00,VWS V14.01,2013-03-01 16:00:00,
2013-03-01 11:05:00,57.9,5.6,30.02,NNE,32,4.9,4.9,12,0.00,,---,0.00,VWS V14.01,2013-03-01 16:05:00,
2013-03-01 11:10:00,57.9,5.6,30.02,NNE,20,0.0,0.0,12,0.00,,---,0.00,VWS V14.01,2013-03-01 16:10:00,
2013-03-01 11:15:00,57.9,5.6,30.02,North,5,3.1,3.6,12,0.00,,---,0.00,VWS V14.01,2013-03-01 16:15:00,
2013-03-01 11:20:00,57.9,5.6,30.02,NE,38,0.0,0.0,12,0.00,,---,0.00,VWS V14.01,2013-03-01 16:20:00,
2013-03-01 11:25:00,58.1,5.8,30.02,North,4,2.7,2.7,12,0.00,,---,0.00,VWS V14.01,2013-03-01 16:25:00,
2013-03-01 11:30:00,58.5,6.1,30.02,NNE,13,0.0,0.0,12,0.00,,---,0.00,VWS V14.01,2013-03-01 16:30:00,
2013-03-01 11:35:00,58.6,6.2,30.02,NNE,18,0.0,0.0,12,0.00,,---,0.00,VWS V14.01,2013-03-01 16:35:00,
2013-03-01 11:40:00,59.0,6.5,30.02,NNE,21,2.7,4.5,12,0.00,,---,0.00,VWS V14.01,2013-03-01 16:40:00,
2013-03-01 11:45:00,59.0,6.5,30.02,NNE,18,0.0,0.0,12,0.00,,---,0.00,VWS V14.01,2013-03-01 16:45:00,
2013-03-01 11:50:00,58.8,6.3,30.02,NNE,30,3.1,3.1,12,0.00,,---,0.00,VWS V14.01,2013-03-01 16:50:00,
2013-03-01 11:55:00,59.2,6.6,30.02,North,357,0.0,0.0,12,0.00,,---,0.00,VWS V14.01,2013-03-01 16:55:00,
2013-03-01 12:00:00,59.4,6.8,30.02,NNW,332,0.0,0.0,12,0.00,,---,0.00,VWS V14.01,2013-03-01 17:00:00,
2013-03-01 12:05:00,59.5,6.9,30.02,NNE,29,0.0,6.3,12,0.00,,---,0.00,VWS V14.01,2013-03-01 17:05:00,
2013-03-01 12:10:00,59.5,6.9,29.99,North,1,0.0,2.7,12,0.00,,---,0.00,VWS V14.01,2013-03-01 17:10:00,
2013-03-01 12:15:00,60.1,7.3,29.99,NNE,23,6.3,6.7,12,0.00,,---,0.00,VWS V14.01,2013-03-01 17:15:00,
2013-03-01 12:20:00,60.1,7.3,29.99,NE,34,5.8,6.3,12,0.00,,---,0.00,VWS V14.01,2013-03-01 17:20:00,
2013-03-01 12:25:00,60.4,7.6,29.99,NW,305,0.0,0.0,12,0.00,,---,0.00,VWS V14.01,2013-03-01 17:25:00,
2013-03-01 12:30:00,60.8,6.0,29.99,North,353,4.9,4.9,11,0.00,,---,0.00,VWS V14.01,2013-03-01 17:30:00,
2013-03-01 12:35:00,60.8,6.0,29.99,NNW,336,4.0,5.4,11,0.00,,---,0.00,VWS V14.01,2013-03-01 17:35:00,
2013-03-01 12:40:00,60.8,6.0,29.99,NNE,24,3.1,4.0,11,0.00,,---,0.00,VWS V14.01,2013-03-01 17:40:00,
2013-03-01 12:45:00,61.5,6.5,29.99,NW,320,0.0,0.0,11,0.00,,---,0.00,VWS V14.01,2013-03-01 17:45:00,
2013-03-01 12:50:00,61.7,6.7,29.99,North,8,0.0,0.0,11,0.00,,---,0.00,VWS V14.01,2013-03-01 17:50:00,
2013-03-01 12:55:00,61.7,6.7,29.99,NNE,30,4.9,5.4,11,0.00,,---,0.00,VWS V14.01,2013-03-01 17:55:00,
2013-03-01 13:00:00,61.9,6.8,29.99,NNE,22,3.6,6.3,11,0.00,,---,0.00,VWS V14.01,2013-03-01 18:00:00,
2013-03-01 13:05:00,62.1,7.0,29.99,NW,309,2.7,4.0,11,0.00,,---,0.00,VWS V14.01,2013-03-01 18:05:00,
2013-03-01 13:10:00,62.1,7.0,29.96,NNE,20,3.1,3.6,11,0.00,,---,0.00,VWS V14.01,2013-03-01 18:10:00,
2013-03-01 13:15:00,61.3,6.4,29.96,NNW,333,2.2,2.7,11,0.00,,---,0.00,VWS V14.01,2013-03-01 18:15:00,
2013-03-01 13:20:00,62.1,7.0,29.96,West,271,2.7,3.6,11,0.00,,---,0.00,VWS V14.01,2013-03-01 18:20:00,
2013-03-01 13:25:00,61.9,6.8,29.96,NW,312,3.6,3.6,11,0.00,,---,0.00,VWS V14.01,2013-03-01 18:25:00,
2013-03-01 13:30:00,61.7,6.7,29.96,West,273,0.0,0.0,11,0.00,,---,0.00,VWS V14.01,2013-03-01 18:30:00,
2013-03-01 13:35:00,61.0,6.1,29.96,NE,37,4.9,5.8,11,0.00,,---,0.00,VWS V14.01,2013-03-01 18:35:00,
2013-03-01 13:40:00,60.8,6.0,29.96,SW,235,0.0,2.2,11,0.00,,---,0.00,VWS V14.01,2013-03-01 18:40:00,
2013-03-01 13:45:00,61.0,6.1,29.96,NNE,22,3.1,3.1,11,0.00,,---,0.00,VWS V14.01,2013-03-01 18:45:00,
2013-03-01 13:50:00,61.2,6.3,29.96,West,281,4.0,4.0,11,0.00,,---,0.00,VWS V14.01,2013-03-01 18:50:00,
2013-03-01 13:55:00,61.3,6.4,29.96,WNW,300,2.7,3.1,11,0.00,,---,0.00,VWS V14.01,2013-03-01 18:55:00,
2013-03-01 14:00:00,62.1,7.0,29.96,South,186,0.0,2.2,11,0.00,,---,0.00,VWS V14.01,2013-03-01 19:00:00,
2013-03-01 14:05:00,62.1,7.0,29.96,NNE,21,0.0,0.0,11,0.00,,---,0.00,VWS V14.01,2013-03-01 19:05:00,
2013-03-01 14:10:00,61.7,6.7,29.96,NNW,343,3.6,3.6,11,0.00,,---,0.00,VWS V14.01,2013-03-01 19:10:00,
2013-03-01 14:15:00,61.7,6.7,29.96,WNW,284,3.6,3.6,11,0.00,,---,0.00,VWS V14.01,2013-03-01 19:15:00,
2013-03-01 14:20:00,61.3,6.4,29.96,North,1,2.2,3.6,11,0.00,,---,0.00,VWS V14.01,2013-03-01 19:20:00,
2013-03-01 14:25:00,60.6,7.8,29.96,NE,35,5.4,5.4,12,0.00,,---,0.00,VWS V14.01,2013-03-01 19:25:00,
2013-03-01 14:30:00,60.4,7.6,29.96,NE,48,5.8,6.3,12,0.00,,---,0.00,VWS V14.01,2013-03-01 19:30:00,
2013-03-01 14:35:00,60.8,6.0,29.96,North,357,3.6,4.0,11,0.00,,---,0.00,VWS V14.01,2013-03-01 19:35:00,
2013-03-01 14:40:00,62.1,7.0,29.96,NE,37,5.8,5.8,11,0.00,,---,0.00,VWS V14.01,2013-03-01 19:40:00,
2013-03-01 14:45:00,62.1,7.0,29.96,NE,35,5.4,5.4,11,0.00,,---,0.00,VWS V14.01,2013-03-01 19:45:00,
2013-03-01 14:50:00,61.7,6.7,29.96,NNE,33,6.3,6.3,11,0.00,,---,0.00,VWS V14.01,2013-03-01 19:50:00,
2013-03-01 14:55:00,61.9,6.8,29.96,NNW,341,3.1,3.1,11,0.00,,---,0.00,VWS V14.01,2013-03-01 19:55:00,
2013-03-01 15:00:00,62.2,7.1,29.96,NNW,334,4.0,4.0,11,0.00,,---,0.00,VWS V14.01,2013-03-01 20:00:00,
2013-03-01 15:05:00,62.1,7.0,29.96,NNW,330,3.1,3.1,11,0.00,,---,0.00,VWS V14.01,2013-03-01 20:05:00,
2013-03-01 15:10:00,62.1,7.0,29.96,NE,42,6.7,6.7,11,0.00,,---,0.00,VWS V14.01,2013-03-01 20:10:00,
2013-03-01 15:15:00,63.0,7.7,29.96,NW,312,4.0,4.0,11,0.00,,---,0.00,VWS V14.01,2013-03-01 20:15:00,
2013-03-01 15:20:00,63.5,8.1,29.96,North,5,3.6,3.6,11,0.00,,---,0.00,VWS V14.01,2013-03-01 20:20:00,
2013-03-01 15:25:00,63.0,7.7,29.96,WNW,300,4.0,4.0,11,0.00,,---,0.00,VWS V14.01,2013-03-01 20:25:00,
2013-03-01 15:30:00,61.7,6.7,29.96,WNW,292,2.7,4.0,11,0.00,,---,0.00,VWS V14.01,2013-03-01 20:30:00,
2013-03-01 15:35:00,61.7,6.7,29.96,NW,313,3.6,3.6,11,0.00,,---,0.00,VWS V14.01,2013-03-01 20:35:00,
2013-03-01 15:40:00,61.5,6.5,29.96,North,357,3.6,6.3,11,0.00,,---,0.00,VWS V14.01,2013-03-01 20:40:00,
2013-03-01 15:45:00,61.2,6.3,29.96,North,7,2.7,4.0,11,0.00,,---,0.00,VWS V14.01,2013-03-01 20:45:00,
2013-03-01 15:50:00,61.0,6.1,29.96,WNW,295,6.3,6.3,11,0.00,,---,0.00,VWS V14.01,2013-03-01 20:50:00,
2013-03-01 15:55:00,61.2,6.3,29.96,WNW,297,2.7,5.8,11,0.00,,---,0.00,VWS V14.01,2013-03-01 20:55:00,
2013-03-01 16:00:00,60.6,7.8,29.96,NNW,332,3.1,4.0,12,0.00,,---,0.00,VWS V14.01,2013-03-01 21:00:00,
2013-03-01 16:05:00,60.6,7.8,29.96,North,1,3.1,5.8,12,0.00,,---,0.00,VWS V14.01,2013-03-01 21:05:00,
2013-03-01 16:10:00,60.6,7.8,29.96,NW,307,3.1,3.1,12,0.00,,---,0.00,VWS V14.01,2013-03-01 21:10:00,
2013-03-01 16:15:00,60.6,7.8,29.96,NNE,21,4.0,4.0,12,0.00,,---,0.00,VWS V14.01,2013-03-01 21:15:00,
2013-03-01 16:20:00,60.1,7.3,29.96,NW,305,3.1,4.0,12,0.00,,---,0.00,VWS V14.01,2013-03-01 21:20:00,
2013-03-01 16:25:00,60.1,7.3,29.96,NNW,334,3.6,3.6,12,0.00,,---,0.00,VWS V14.01,2013-03-01 21:25:00,
2013-03-01 16:30:00,60.4,7.6,29.96,NNE,16,0.0,2.7,12,0.00,,---,0.00,VWS V14.01,2013-03-01 21:30:00,
2013-03-01 16:35:00,60.6,7.8,29.96,WSW,250,3.6,4.0,12,0.00,,---,0.00,VWS V14.01,2013-03-01 21:35:00,
2013-03-01 16:40:00,60.1,7.3,29.96,NNW,330,2.7,3.1,12,0.00,,---,0.00,VWS V14.01,2013-03-01 21:40:00,
2013-03-01 16:45:00,59.9,7.2,29.96,WNW,299,3.1,3.1,12,0.00,,---,0.00,VWS V14.01,2013-03-01 21:45:00,
2013-03-01 16:50:00,59.4,6.8,29.96,WNW,293,4.0,4.0,12,0.00,,---,0.00,VWS V14.01,2013-03-01 21:50:00,
2013-03-01 16:55:00,58.8,6.3,29.96,NW,321,2.2,2.7,12,0.00,,---,0.00,VWS V14.01,2013-03-01 21:55:00,
2013-03-01 17:00:00,58.6,6.2,29.96,North,1,0.0,0.0,12,0.00,,---,0.00,VWS V14.01,2013-03-01 22:00:00,
2013-03-01 17:05:00,58.6,6.2,29.96,NW,305,0.0,0.0,12,0.00,,---,0.00,VWS V14.01,2013-03-01 22:05:00,
2013-03-01 17:10:00,58.8,6.3,29.96,NNE,18,0.0,0.0,12,0.00,,---,0.00,VWS V14.01,2013-03-01 22:10:00,
2013-03-01 17:15:00,58.6,6.2,29.96,North,357,0.0,0.0,12,0.00,,---,0.00,VWS V14.01,2013-03-01 22:15:00,
2013-03-01 17:20:00,58.3,5.9,29.96,NNW,338,0.0,0.0,12,0.00,,---,0.00,VWS V14.01,2013-03-01 22:20:00,
2013-03-01 17:25:00,57.9,5.6,29.96,NNW,331,3.1,3.1,12,0.00,,---,0.00,VWS V14.01,2013-03-01 22:25:00,
2013-03-01 17:30:00,57.9,5.6,29.96,WNW,301,0.0,3.1,12,0.00,,---,0.00,VWS V14.01,2013-03-01 22:30:00,
2013-03-01 17:35:00,57.7,5.5,29.96,North,2,0.0,0.0,12,0.00,,---,0.00,VWS V14.01,2013-03-01 22:35:00,
2013-03-01 17:40:00,57.4,5.2,29.96,NW,323,0.0,0.0,12,0.00,,---,0.00,VWS V14.01,2013-03-01 22:40:00,
2013-03-01 17:45:00,57.2,5.1,29.96,West,272,0.0,0.0,12,0.00,,---,0.00,VWS V14.01,2013-03-01 22:45:00,
2013-03-01 17:50:00,57.4,5.2,29.96,North,353,2.7,4.0,12,0.00,,---,0.00,VWS V14.01,2013-03-01 22:50:00,
2013-03-01 17:55:00,57.4,5.2,29.96,WNW,289,0.0,0.0,12,0.00,,---,0.00,VWS V14.01,2013-03-01 22:55:00,
2013-03-01 18:00:00,57.2,5.1,29.96,WNW,302,0.0,0.0,12,0.00,,---,0.00,VWS V14.01,2013-03-01 23:00:00,
2013-03-01 18:05:00,56.8,4.8,29.96,WNW,292,3.1,3.1,12,0.00,,---,0.00,VWS V14.01,2013-03-01 23:05:00,
2013-03-01 18:10:00,56.7,4.6,29.99,NE,35,2.7,3.6,12,0.00,,---,0.00,VWS V14.01,2013-03-01 23:10:00,
2013-03-01 18:15:00,56.7,4.6,29.99,NW,326,0.0,0.0,12,0.00,,---,0.00,VWS V14.01,2013-03-01 23:15:00,
2013-03-01 18:20:00,56.7,4.6,29.99,NNW,345,0.0,0.0,12,0.00,,---,0.00,VWS V14.01,2013-03-01 23:20:00,
2013-03-01 18:25:00,56.5,4.5,29.99,North,0,0.0,0.0,12,0.00,,---,0.00,VWS V14.01,2013-03-01 23:25:00,
2013-03-01 18:30:00,56.5,4.5,29.99,North,350,0.0,2.7,12,0.00,,---,0.00,VWS V14.01,2013-03-01 23:30:00,
2013-03-01 18:35:00,56.3,4.4,29.99,WSW,248,0.0,0.0,12,0.00,,---,0.00,VWS V14.01,2013-03-01 23:35:00,
2013-03-01 18:40:00,56.3,4.4,29.99,NW,318,0.0,0.0,12,0.00,,---,0.00,VWS V14.01,2013-03-01 23:40:00,
2013-03-01 18:45:00,56.3,4.4,29.99,NW,320,0.0,0.0,12,0.00,,---,0.00,VWS V14.01,2013-03-01 23:45:00,
2013-03-01 18:50:00,56.5,4.5,29.99,NNW,335,0.0,2.7,12,0.00,,---,0.00,VWS V14.01,2013-03-01 23:50:00,
2013-03-01 18:55:00,56.5,4.5,29.99,NW,312,0.0,0.0,12,0.00,,---,0.00,VWS V14.01,2013-03-01 23:55:00,
2013-03-01 19:00:00,56.5,4.5,29.99,WNW,284,0.0,2.2,12,0.00,,---,0.00,VWS V14.01,2013-03-02 00:00:00,
2013-03-01 19:05:00,56.5,4.5,29.99,North,353,0.0,0.0,12,0.00,,---,0.00,VWS V14.01,2013-03-02 00:05:00,
2013-03-01 19:10:00,56.5,4.5,30.02,North,353,3.1,3.1,12,0.00,,---,0.00,VWS V14.01,2013-03-02 00:10:00,
2013-03-01 19:15:00,56.3,4.4,30.02,WNW,302,0.0,2.2,12,0.00,,---,0.00,VWS V14.01,2013-03-02 00:15:00,
2013-03-01 19:20:00,56.3,4.4,30.02,WNW,302,0.0,0.0,12,0.00,,---,0.00,VWS V14.01,2013-03-02 00:20:00,
2013-03-01 19:25:00,56.5,4.5,29.99,WNW,298,0.0,0.0,12,0.00,,---,0.00,VWS V14.01,2013-03-02 00:25:00,
2013-03-01 19:30:00,56.3,4.4,29.99,NW,310,0.0,0.0,12,0.00,,---,0.00,VWS V14.01,2013-03-02 00:30:00,
2013-03-01 19:35:00,56.3,4.4,29.99,North,357,0.0,0.0,12,0.00,,---,0.00,VWS V14.01,2013-03-02 00:35:00,
2013-03-01 19:40:00,56.3,4.4,29.99,NW,324,0.0,0.0,12,0.00,,---,0.00,VWS V14.01,2013-03-02 00:40:00,
2013-03-01 19:45:00,56.3,4.4,29.99,NW,310,2.7,4.0,12,0.00,,---,0.00,VWS V14.01,2013-03-02 00:45:00,
2013-03-01 19:50:00,56.3,4.4,29.99,NW,322,0.0,0.0,12,0.00,,---,0.00,VWS V14.01,2013-03-02 00:50:00,
2013-03-01 19:55:00,56.1,4.2,29.99,NW,307,3.1,3.1,12,0.00,,---,0.00,VWS V14.01,2013-03-02 00:55:00,
2013-03-01 20:00:00,56.3,4.4,29.99,NW,311,0.0,0.0,12,0.00,,---,0.00,VWS V14.01,2013-03-02 01:00:00,
2013-03-01 20:05:00,56.1,4.2,29.99,NNW,338,0.0,0.0,12,0.00,,---,0.00,VWS V14.01,2013-03-02 01:05:00,
2013-03-01 20:10:00,56.1,4.2,29.99,WNW,296,0.0,0.0,12,0.00,,---,0.00,VWS V14.01,2013-03-02 01:10:00,
2013-03-01 20:15:00,56.1,4.2,29.99,NW,305,0.0,0.0,12,0.00,,---,0.00,VWS V14.01,2013-03-02 01:15:00,
2013-03-01 20:20:00,56.1,4.2,29.99,North,0,0.0,0.0,12,0.00,,---,0.00,VWS V14.01,2013-03-02 01:20:00,
2013-03-01 20:25:00,56.1,4.2,30.02,NNW,328,0.0,0.0,12,0.00,,---,0.00,VWS V14.01,2013-03-02 01:25:00,
2013-03-01 20:30:00,56.1,4.2,30.02,North,349,0.0,0.0,12,0.00,,---,0.00,VWS V14.01,2013-03-02 01:30:00,
2013-03-01 20:35:00,56.1,4.2,30.02,NW,317,0.0,0.0,12,0.00,,---,0.00,VWS V14.01,2013-03-02 01:35:00,
2013-03-01 20:40:00,56.1,4.2,30.02,WNW,303,2.7,3.1,12,0.00,,---,0.00,VWS V14.01,2013-03-02 01:40:00,
2013-03-01 20:45:00,56.1,4.2,30.02,WNW,303,0.0,0.0,12,0.00,,---,0.00,VWS V14.01,2013-03-02 01:45:00,
2013-03-01 20:50:00,56.1,4.2,30.02,NW,307,0.0,0.0,12,0.00,,---,0.00,VWS V14.01,2013-03-02 01:50:00,
2013-03-01 20:55:00,56.1,4.2,30.02,NNW,334,2.2,2.7,12,0.00,,---,0.00,VWS V14.01,2013-03-02 01:55:00,
2013-03-01 21:00:00,56.1,4.2,30.02,NNE,25,3.6,3.6,12,0.00,,---,0.00,VWS V14.01,2013-03-02 02:00:00,
2013-03-01 21:05:00,55.9,4.1,30.02,WNW,295,0.0,0.0,12,0.00,,---,0.00,VWS V14.01,2013-03-02 02:05:00,
2013-03-01 21:10:00,55.9,4.1,30.02,NNW,342,0.0,0.0,12,0.00,,---,0.00,VWS V14.01,2013-03-02 02:10:00,
2013-03-01 21:15:00,55.9,4.1,30.02,WNW,298,0.0,0.0,12,0.00,,---,0.00,VWS V14.01,2013-03-02 02:15:00,
2013-03-01 21:20:00,55.9,4.1,30.02,WNW,299,3.6,3.6,12,0.00,,---,0.00,VWS V14.01,2013-03-02 02:20:00,
2013-03-01 21:25:00,55.9,4.1,30.02,WNW,296,2.7,3.1,12,0.00,,---,0.00,VWS V14.01,2013-03-02 02:25:00,
2013-03-01 21:30:00,55.9,4.1,30.02,West,280,3.6,4.0,12,0.00,,---,0.00,VWS V14.01,2013-03-02 02:30:00,
2013-03-01 21:35:00,55.9,4.1,30.02,NW,316,0.0,0.0,12,0.00,,---,0.00,VWS V14.01,2013-03-02 02:35:00,
2013-03-01 21:40:00,55.9,4.1,30.02,WNW,287,2.7,2.7,12,0.00,,---,0.00,VWS V14.01,2013-03-02 02:40:00,
2013-03-01 21:45:00,55.9,4.1,30.02,NW,319,3.1,4.0,12,0.00,,---,0.00,VWS V14.01,2013-03-02 02:45:00,
2013-03-01 21:50:00,55.9,4.1,30.02,NNW,335,2.7,4.0,12,0.00,,---,0.00,VWS V14.01,2013-03-02 02:50:00,
2013-03-01 21:55:00,55.9,4.1,30.02,NW,315,0.0,0.0,12,0.00,,---,0.00,VWS V14.01,2013-03-02 02:55:00,
2013-03-01 22:00:00,55.8,3.9,30.02,WNW,293,2.7,2.7,12,0.00,,---,0.00,VWS V14.01,2013-03-02 03:00:00,
2013-03-01 22:05:00,55.8,3.9,30.02,NNW,346,0.0,3.6,12,0.00,,---,0.00,VWS V14.01,2013-03-02 03:05:00,
2013-03-01 22:10:00,55.8,3.9,30.02,NW,316,0.0,0.0,12,0.00,,---,0.00,VWS V14.01,2013-03-02 03:10:00,
2013-03-01 22:15:00,55.8,3.9,30.02,NW,320,0.0,0.0,12,0.00,,---,0.00,VWS V14.01,2013-03-02 03:15:00,
2013-03-01 22:20:00,55.6,3.8,30.02,WNW,284,2.2,2.2,12,0.00,,---,0.00,VWS V14.01,2013-03-02 03:20:00,
2013-03-01 22:25:00,55.6,3.8,30.02,NW,304,0.0,0.0,12,0.00,,---,0.00,VWS V14.01,2013-03-02 03:25:00,
2013-03-01 22:30:00,55.6,3.8,30.02,WNW,288,2.7,3.1,12,0.00,,---,0.00,VWS V14.01,2013-03-02 03:30:00,
2013-03-01 22:35:00,55.6,3.8,30.02,NW,305,0.0,0.0,12,0.00,,---,0.00,VWS V14.01,2013-03-02 03:35:00,
2013-03-01 22:40:00,55.6,3.8,30.02,North,0,0.0,2.7,12,0.00,,---,0.00,VWS V14.01,2013-03-02 03:40:00,
2013-03-01 22:45:00,55.6,3.8,30.02,North,353,3.6,4.0,12,0.00,,---,0.00,VWS V14.01,2013-03-02 03:45:00,
2013-03-01 22:50:00,55.8,3.9,30.02,WNW,299,2.7,4.0,12,0.00,,---,0.00,VWS V14.01,2013-03-02 03:50:00,
2013-03-01 22:55:00,55.8,3.9,30.02,NW,306,0.0,0.0,12,0.00,,---,0.00,VWS V14.01,2013-03-02 03:55:00,
2013-03-01 23:00:00,55.8,3.9,30.02,NW,318,3.6,3.6,12,0.00,,---,0.00,VWS V14.01,2013-03-02 04:00:00,
2013-03-01 23:05:00,55.8,3.9,30.02,NW,312,4.0,4.0,12,0.00,,---,0.00,VWS V14.01,2013-03-02 04:05:00,
2013-03-01 23:10:00,55.8,3.9,30.02,WNW,300,2.7,2.7,12,0.00,,---,0.00,VWS V14.01,2013-03-02 04:10:00,
2013-03-01 23:15:00,55.8,3.9,30.02,NNW,338,0.0,0.0,12,0.00,,---,0.00,VWS V14.01,2013-03-02 04:15:00,
2013-03-01 23:20:00,55.8,3.9,30.02,WNW,287,0.0,0.0,12,0.00,,---,0.00,VWS V14.01,2013-03-02 04:20:00,
2013-03-01 23:25:00,55.8,3.9,30.02,North,1,0.0,0.0,12,0.00,,---,0.00,VWS V14.01,2013-03-02 04:25:00,
2013-03-01 23:30:00,55.8,3.9,30.02,NW,314,0.0,0.0,12,0.00,,---,0.00,VWS V14.01,2013-03-02 04:30:00,
2013-03-01 23:35:00,55.6,3.8,30.02,NW,326,0.0,2.7,12,0.00,,---,0.00,VWS V14.01,2013-03-02 04:35:00,
2013-03-01 23:40:00,55.6,3.8,30.02,NNW,341,0.0,0.0,12,0.00,,---,0.00,VWS V14.01,2013-03-02 04:40:00,
2013-03-01 23:48:00,55.6,3.8,30.02,NNW,335,0.0,0.0,12,0.00,,---,0.00,VWS V14.01,2013-03-02 04:48:00,
2013-03-01 23:53:00,55.6,3.8,30.02,North,357,0.0,0.0,12,0.00,,---,0.00,VWS V14.01,2013-03-02 04:53:00,
2013-03-01 23:58:00,55.6,3.8,30.02,North,0,0.0,3.1,12,0.00,,---,0.00,VWS V14.01,2013-03-02 04:58:00,